Weather History for Jonesboro, AR

Change the Weather History Date:

Sunday, July 27, 2014

  Actual Average Record
Temperature  
Mean Temperature 84 °F 81 °F  
Max Temperature 91 °F 91 °F 107 °F (1930)
Min Temperature 77 °F 71 °F 52 °F (1897)
Degree Days  
Heating Degree Days 0 0  
Month to date heating degree days 0 0  
Since 1 June heating degree days 0 1  
Since 1 July heating degree days 0 0  
Cooling Degree Days 19 16  
Month to date cooling degree days 299 431  
Year to date cooling degree days 939 1027  
Since 1 June cooling degree days 692 814  
Growing Degree Days 34 (Base 50)    
Moisture  
Dew Point 75 °F    
Average Humidity 78    
Maximum Humidity 88    
Minimum Humidity 68    
Precipitation  
Precipitation 0.12 in 0.08 in 3.75 in (1933)
Month to date precipitation 1.75 3.23  
Year to date precipitation 31.87 28.26  
Snow  
Snow 0.00 in 0.00 in - ()
Month to date snowfall 0.0 0.0  
Since 1 June snowfall 0.0 0.0  
Since 1 July snowfall 0.0 0.0  
Snow Depth 0.00 in    
Sea Level Pressure  
Sea Level Pressure 29.92 in    
Wind  
Wind Speed 9 mph (WSW)    
Max Wind Speed 17 mph    
Max Gust Speed 22 mph    
Visibility 9 miles    
Events Rain , Thunderstorm    
T = Trace of Precipitation, MM = Missing Value Source: NWS Daily Summary

Daily Weather History Graph

Daily Weather History Graph

Search for Another Location

Airport:

Trip Planner

Search our weather history database for the weather conditions in past years. The results will help you decide how hot, cold, wet, or windy it might be!

Date:

Astronomy

Jul. 27, 2014 Rise Set
Actual Time 6:06 AM CDT 8:11 PM CDT
Civil Twilight 5:37 AM CDT 8:39 PM CDT
Nautical Twilight 5:03 AM CDT 9:14 PM CDT
Astronomical Twilight 4:25 AM CDT 9:51 PM CDT
Moon 6:49 AM CDT (7/27) 8:25 PM CDT (7/27)
Length of Visible Light 15h 01m
Length of Day
14h 04m
New Moon, 1% of the Moon is Illuminated
Jul 27
New Moon
Aug 3
First Quarter
Aug 10
Full
Aug 17
Last Quarter
Aug 25
New

Hourly Weather History & Observations

Time (CDT) Temp. Heat Index Dew Point Humidity Pressure Visibility Wind Dir Wind Speed Gust Speed Precip Events Conditions
12:53 AM 80.1 °F 84.5 °F 73.9 °F 81% 29.92 in 10.0 mi SW 10.4 mph - N/A   Clear
1:53 AM 80.1 °F 84.5 °F 73.9 °F 81% 29.92 in 10.0 mi SW 11.5 mph - N/A   Clear
2:53 AM 80.1 °F 84.5 °F 73.9 °F 81% 29.92 in 10.0 mi WSW 8.1 mph - N/A   Clear
3:53 AM 80.1 °F 84.2 °F 73.0 °F 79% 29.92 in 10.0 mi WSW 11.5 mph - N/A   Clear
4:53 AM 78.1 °F - 73.0 °F 84% 29.91 in 10.0 mi WSW 9.2 mph - N/A   Clear
5:53 AM 78.1 °F - 73.0 °F 84% 29.91 in 10.0 mi WSW 9.2 mph - N/A   Clear
6:53 AM 77.0 °F - 73.0 °F 88% 29.94 in 9.0 mi SW 5.8 mph - N/A   Clear
7:53 AM 80.1 °F 84.5 °F 73.9 °F 81% 29.94 in 10.0 mi WSW 13.8 mph - N/A   Clear
8:53 AM 82.0 °F 87.9 °F 73.9 °F 76% 29.94 in 10.0 mi WSW 15.0 mph 20.7 mph N/A   Clear
9:53 AM 84.9 °F 92.1 °F 73.9 °F 69% 29.95 in 10.0 mi West 16.1 mph 20.7 mph N/A   Clear
10:53 AM 86.0 °F 95.1 °F 75.0 °F 70% 29.94 in 10.0 mi WSW 11.5 mph - N/A   Clear
12:53 PM 88.0 °F 98.5 °F 75.9 °F 67% 29.92 in 10.0 mi SW 15.0 mph - N/A   Clear
1:53 PM 88.0 °F 98.5 °F 75.9 °F 67% 29.92 in 10.0 mi WSW 12.7 mph - N/A   Clear
2:53 PM 90.0 °F 104.5 °F 78.1 °F 68% 29.91 in 10.0 mi West 10.4 mph 19.6 mph N/A   Clear
3:53 PM 88.0 °F 98.5 °F 75.9 °F 67% 29.91 in 10.0 mi WSW 11.5 mph - N/A   Clear
4:53 PM 90.0 °F 102.5 °F 77.0 °F 65% 29.90 in 10.0 mi West 9.2 mph - N/A   Clear
5:13 PM 87.8 °F 97.6 °F 75.2 °F 66% 29.91 in 3.0 mi WSW 11.5 mph - 0.04 in Rain , Thunderstorm Light Thunderstorms and Rain
5:20 PM 84.2 °F 92.3 °F 75.2 °F 74% 29.91 in 2.0 mi West 9.2 mph - 0.10 in Rain , Thunderstorm Light Thunderstorms and Rain
5:29 PM 84.2 °F 94.1 °F 77.0 °F 79% 29.91 in 8.0 mi WNW 4.6 mph - 0.11 in Rain , Thunderstorm Light Thunderstorms and Rain
5:42 PM 82.4 °F 92.4 °F 78.8 °F 89% 29.92 in 10.0 mi West 5.8 mph - N/A   Scattered Clouds
5:53 PM 84.0 °F 96.0 °F 79.0 °F 85% 29.91 in 10.0 mi West 6.9 mph - 0.11 in   Partly Cloudy
6:53 PM 84.9 °F 96.6 °F 78.1 °F 80% 29.91 in 10.0 mi West 6.9 mph - 0.01 in   Clear
7:53 PM 84.9 °F 94.1 °F 75.9 °F 74% 29.91 in 10.0 mi West 6.9 mph - N/A   Clear
8:53 PM 82.9 °F 90.8 °F 75.9 °F 79% 29.91 in 10.0 mi West 3.5 mph - N/A   Clear
9:53 PM 82.0 °F 89.4 °F 75.9 °F 82% 29.93 in 10.0 mi WNW 4.6 mph - N/A   Clear
10:53 PM 82.0 °F 88.6 °F 75.0 °F 79% 29.95 in 10.0 mi WNW 5.8 mph - N/A   Clear
11:53 PM 79.0 °F - 71.1 °F 77% 29.96 in 10.0 mi NW 3.5 mph - N/A   Clear